Location: Carrières
(48.9495°N, 2.0407°E)
Time: 12:07:52
(UTC+00:00)

Transit 2A - Pass Details

Date: 23 April 2024
Orbit: 594 x 958 km, 66.7° (Epoch: 24 May)

Event Time Altitude Azimuth Distance (km) Brightness Sun altitude
Rises 04:45:47 0° 178° (S) 2,837 8.8 -0.7°
Reaches altitude 10° 04:48:18 10° 164° (SSE) 1,963 8.1 -0.3°
Maximum altitude 04:51:49 24° 110° (ESE) 1,319 8.1 0.3°
Drops below altitude 10° 04:55:33 10° 57° (ENE) 2,094 10.1 0.8°
Sets 04:58:19 0° 44° (NE) 3,074 10.4 1.3°
